STARLINK-11715, 64076

Orbit data source: Space-Track

STARLINK-11715, 64076 is a payload satellite owned by SpaceX/Seattle (US) in LEO that was launched on Wed, 21 May 2025 UTC via an FALCON 9 launch vehicle from the Air Force Eastern Test Range (AFETR). Payload-class satellites include a variety of spacecraft equipped with specific instruments for various scientific and technological missions. These include communications satellites like Starlink; space stations such as the ISS; scientific satellites like the Hubble; Earth observation satellites from companies like Planet Labs, Umbra, and HawkEye 360; GPS; miniature CubeSats for education and research; and military/defense satellites.

Loading next visibility...
Identifier
64076, 2025-107N
Orbit
LEO
Country
Flag of USUS
Related business
Manufacturer
SpaceX/Seattle
Mission
Operational Commercial Communications
Bus & Motor
STARLINK V2MD, Unknown motor
Mass
960 kg wet, ~910 kg dry
Launch date (UTC)
2025-05-21 (1 year ago)
Launch vehicle
FALCON 9
Launch site
Air Force Eastern Test Range (AFETR)
Object type
Payload
Rocket body
Debris
Shape & HBR
Box + 2 Pan, 18.1 m
Radar Cross Section
36.964 m², Large (>1 m²)

Expand to show TLE details & history
Last TLE update: 1 day ago

TLE from 1 day ago
0 STARLINK-11715
1 64076U 25107N   26170.37994206  .00205621  00000-0  15636-2 0  9993
2 64076  42.9997 205.0627 0000711 200.5620 159.5220 15.70885423 63298
Epoch: 2026-06-19T09:07Z
TLE epoch observation values (Epoch: 2026-06-19T09:07:06.993Z)
Latitude
0.00002°
Longitude
160.67383°
Altitude
356.585 km
Speed
7.697 km/s
True Right ascension
13h 40m 15s
True Declination
0° 00' 00"
Sunlit
Object was in full shadow at epoch
Visualization orbit readout
Latitude
Unknown
Longitude
Unknown
Altitude
Unknown
Speed
Unknown
Apparent Right ascension
Unknown
Apparent Declination
Unknown
Sunlit
N/A
Visualization observer readout
Local Sidereal Time
07:18:49
Azimuth
Unknown
Elevation
Unknown
Doppler factor
Unknown
Orbital elements
Apogee altitude
358.826 km
Perigee altitude
357.868 km
Semi-major axis
6,736.484 km
Eccentricity
0.00007
Inclination
42.9997°
RAAN
205.0627°
Arg. of periapsis
200.562°
True anomaly
159.52485°
Mean anomaly
159.522°
Eccentric anomaly
159.52343°
Mean motion
3.92548 °/min
Orbital period
91.71 mins
BSTAR
0.0015636
Loading maneuver chart data...
Computing Atmospheric mass density...
Loading historical data...
Loading historical data...
Loading historical data...
Loading historical data...
Loading historical data...
Loading historical data...
Loading historical data...

Documentation

Showing up to 5 results
|